Theta_e
286 286 286 286 286 286 285 285 285 285 285 284 284 283 282 282 282 281 281 281 281 281 281 281 281 283 283 283 284 284 284 284 281 283 285 286 286 286 287 289 290 290 292
286 286 286 286 285 285 284 285 285 284 285 284 283 282 281 281 281 280 280 280 279 279 280 280 280 282 281 282 282 282 282 284 283 281 283 284 284 286 286 287 288 290 290
286 285 285 285 284 284 284 285 285 284 283 283 282 280 279 280 279 280 279 279 279 279 279 279 279 280 279 280 281 281 281 283 283 281 280 283 284 285 285 286 286 287 289
285 284 284 284 284 284 284 284 283 283 281 280 279 279 279 279 279 279 279 278 278 279 279 279 279 279 280 280 281 281 281 281 281 280 280 281 282 283 284 283 283 286 285
284 283 283 284 284 283 283 283 282 281 280 279 278 278 278 278 279 278 278 278 277 277 278 279 279 279 281 281 280 280 281 280 280 280 278 279 280 280 280 283 282 284 285
283 282 283 283 283 282 282 281 280 279 278 278 277 277 277 278 280 280 280 277 277 276 276 277 278 279 280 282 282 283 282 281 279 279 279 277 278 280 281 281 281 281 279
282 282 282 282 281 281 280 279 278 276 276 276 276 276 276 276 279 279 279 276 276 276 276 276 277 279 279 279 281 282 282 282 283 281 278 278 278 280 281 280 281 281 281
282 281 281 281 280 279 278 277 276 275 274 274 273 273 273 275 278 278 277 276 275 276 276 277 277 277 279 279 278 278 279 280 280 280 280 280 280 281 281 281 281 281 283
279 279 279 279 277 276 274 274 274 274 273 273 274 272 272 272 276 277 276 275 274 275 276 277 277 277 278 279 278 277 276 277 281 282 283 283 284 285 284 282 280 279 278
278 277 275 273 273 271 272 271 272 273 272 273 272 272 271 271 274 276 276 275 273 274 275 276 277 276 279 279 277 276 274 276 277 278 279 281 282 281 283 282 281 279 279
273 271 271 271 269 270 270 271 271 270 270 269 269 270 271 271 272 275 277 275 274 273 273 273 275 277 278 279 280 277 276 278 278 277 277 278 279 280 282 283 284 282 280
270 268 267 267 269 270 268 267 268 269 267 267 267 268 269 270 272 274 275 276 275 273 272 273 273 276 278 278 277 278 278 278 274 273 274 276 278 278 281 284 285 285 285
267 265 266 267 268 269 267 266 266 267 266 267 267 266 266 269 269 273 273 274 275 273 273 274 276 277 276 274 274 276 273 270 270 270 270 272 274 276 278 281 282 281 280
265 265 267 267 267 266 269 269 267 265 265 266 265 265 266 267 268 268 269 271 273 272 273 273 273 273 272 271 268 269 268 268 267 267 268 271 273 274 274 282 280 279 277
266 266 267 268 267 266 267 266 268 268 268 266 267 268 267 265 267 272 272 270 271 273 273 268 265 264 264 264 265 265 265 265 265 266 267 267 269 271 273 281 279 278 276
267 267 266 265 264 265 265 264 269 270 271 272 272 271 269 271 272 272 272 273 274 274 267 262 261 262 262 262 262 263 263 263 264 264 264 266 267 269 270 278 278 276 275
261 264 264 264 264 263 263 262 261 263 267 268 269 270 270 270 270 270 271 273 272 269 260 260 260 261 261 261 262 262 261 263 263 263 264 265 267 268 270 275 276 276 275
256 259 259 260 260 260 261 261 260 258 258 259 264 266 267 267 268 269 271 269 259 260 258 259 259 260 260 260 261 261 261 261 262 262 263 265 267 268 268 275 276 275 275
258 258 257 257 257 258 258 258 258 258 257 257 257 260 261 264 265 267 266 256 258 258 259 259 260 260 260 260 261 261 261 261 261 262 263 265 266 267 268 273 276 275 274
254 257 256 254 254 254 255 254 254 253 255 255 255 255 256 257 259 257 257 257 258 258 259 259 259 260 260 260 261 261 261 261 261 262 263 265 266 267 268 270 275 274 272
254 254 257 253 252 252 251 251 252 252 253 253 254 255 263 259 256 255 256 256 257 258 258 259 259 259 260 260 261 261 261 262 262 263 264 265 266 267 268 269 275 273 272
252 252 251 250 251 251 249 249 251 250 252 252 253 254 261 254 254 254 255 256 257 258 259 259 259 260 260 261 261 262 262 262 262 264 265 266 267 268 268 269 273 272 270
251 249 248 248 248 249 248 247 250 249 251 252 252 253 253 253 253 254 255 256 257 258 259 259 259 259 261 262 262 262 262 263 264 266 266 267 269 269 269 269 271 270 269
248 247 247 246 246 246 246 248 249 250 252 252 252 252 253 253 253 254 255 256 257 257 258 258 259 260 260 261 263 264 265 265 266 268 270 270 270 271 270 269 272 271 270
247 246 246 245 245 246 248 248 249 251 253 253 254 254 254 254 254 255 256 256 257 257 257 258 258 259 261 261 262 263 265 269 270 271 272 273 273 273 272 270 273 271 270
246 246 245 245 246 247 247 249 250 252 253 254 255 255 255 255 255 255 255 256 256 257 257 258 259 259 261 262 264 267 270 272 272 275 277 277 276 275 271 272 273 271 271
Wind_Speed
7 7 7 7 6 6 5 6 6 4 5 6 6 6 6 7 7 8 9 11 11 13 12 13 15 14 12 11 10 10 10 11 14 14 10 12 16 20 18 16 14 14 13
7 7 7 6 6 6 6 7 5 5 5 6 6 6 7 7 7 8 11 12 13 14 14 14 15 11 15 13 10 13 12 12 12 20 12 11 14 16 18 21 15 12 13
7 7 7 7 7 7 7 6 5 5 6 6 6 7 7 8 9 9 11 13 14 14 15 15 16 15 16 13 14 13 11 11 11 12 15 11 12 11 13 15 17 15 11
6 7 7 7 7 7 6 5 5 5 6 6 6 7 8 9 10 11 12 13 15 16 16 16 17 16 17 16 15 14 13 12 12 12 13 13 11 13 11 12 13 11 14
6 7 8 7 7 6 5 5 5 5 6 6 7 7 8 8 9 11 14 16 17 18 17 16 16 18 25 24 14 15 14 11 10 11 14 13 13 11 12 11 12 13 13
7 7 6 6 6 6 5 4 5 5 6 6 7 8 10 8 19 25 23 17 17 17 18 17 16 20 20 27 26 28 24 15 14 12 12 15 19 14 10 11 13 13 17
7 7 6 6 6 5 3 4 5 5 5 8 8 9 11 12 22 26 29 16 16 16 17 16 16 12 17 17 22 26 23 26 26 18 18 17 21 15 14 13 14 15 15
7 7 5 5 5 2 3 4 4 5 6 7 7 6 9 10 24 28 27 16 15 16 16 16 17 16 15 18 18 17 16 15 15 13 17 19 20 18 16 15 17 16 17
7 6 5 4 3 3 3 4 5 6 7 7 8 8 9 12 24 26 23 15 14 15 14 14 15 16 22 28 18 17 17 17 19 28 31 35 36 35 29 16 15 13 16
7 6 4 4 2 2 3 4 5 6 8 7 9 9 11 13 21 24 22 11 13 12 13 13 20 21 27 28 19 17 18 17 18 19 17 21 25 25 31 20 14 15 15
3 3 3 3 3 3 3 4 5 6 8 7 10 8 9 11 14 24 25 13 11 12 12 12 11 26 32 31 30 17 18 22 22 17 15 15 16 16 14 13 15 15 14
4 3 3 3 3 2 2 3 4 7 8 7 8 8 5 9 16 20 25 25 24 14 13 11 13 29 32 32 27 31 32 27 12 13 13 13 12 12 14 14 15 14 14
3 3 3 3 3 3 3 4 4 5 5 7 7 8 9 8 9 22 24 27 26 17 13 22 33 30 31 24 27 29 24 10 12 12 13 13 12 13 18 18 9 12 13
4 4 4 4 4 3 3 3 4 3 5 6 7 9 9 9 9 9 10 12 18 16 20 13 20 24 24 21 15 15 10 10 11 12 13 13 13 13 14 10 9 8 9
4 4 3 3 2 2 3 3 5 4 7 8 8 9 10 9 9 21 21 14 14 17 19 10 10 10 10 10 10 10 10 10 10 11 12 13 13 13 14 9 7 8 9
3 2 1 1 1 2 4 5 9 14 16 19 21 17 9 19 25 26 26 29 29 29 12 9 10 10 10 11 12 12 10 12 10 11 12 12 13 13 13 12 7 8 9
2 3 2 2 2 2 3 5 8 6 15 18 20 20 21 22 23 24 27 26 26 22 7 9 10 10 11 11 11 12 13 11 13 11 12 12 12 13 15 13 8 7 8
1 1 1 2 2 2 3 5 6 7 9 7 13 19 19 21 23 24 23 21 12 9 6 9 10 11 11 11 12 12 12 12 11 11 12 12 12 13 13 12 8 8 6
0 2 3 2 2 3 3 4 5 6 7 8 8 14 10 21 23 19 22 4 9 10 10 10 10 11 11 12 12 12 13 12 13 13 12 12 12 12 13 14 9 9 4
1 2 1 1 2 3 3 3 4 4 7 7 7 8 9 10 10 9 7 7 8 9 10 10 11 11 11 12 12 12 12 12 12 12 12 12 12 11 12 15 9 6 3
2 3 2 2 2 2 2 4 4 5 7 7 8 8 21 11 9 9 9 9 9 10 11 11 11 12 12 12 12 12 13 13 13 12 12 12 12 12 12 12 12 4 2
2 2 2 2 2 2 3 3 5 5 6 7 9 9 20 7 7 9 9 9 10 10 10 11 11 11 12 12 13 13 13 14 14 13 13 13 12 12 11 11 12 2 2
1 2 3 3 3 4 3 3 5 4 6 7 7 8 8 7 8 9 10 10 10 11 11 11 12 12 12 12 12 13 14 15 14 14 15 15 14 12 10 10 11 2 3
1 2 2 3 3 3 4 5 5 7 7 8 7 7 8 9 9 10 11 10 11 12 12 11 12 16 15 15 14 14 14 15 14 15 20 17 15 14 10 9 9 4 4
1 2 2 3 3 4 5 5 5 6 7 7 8 8 8 9 10 10 10 10 11 12 14 14 12 16 19 24 24 26 25 26 24 25 16 17 18 18 10 7 7 5 5
1 2 3 3 3 4 4 5 5 7 8 8 8 9 9 10 10 11 10 11 11 13 17 13 16 22 25 21 24 26 29 30 26 28 18 13 12 10 7 9 9 6 7
Wind_Direction
247 251 247 251 253 262 263 266 264 277 290 291 291 294 297 300 302 305 300 297 294 294 292 289 289 291 286 287 289 288 286 286 288 288 281 289 297 302 303 303 299 301 296
236 246 252 252 253 256 257 259 265 276 287 289 294 294 291 293 297 296 295 295 292 293 292 289 288 293 291 291 294 292 287 289 291 293 298 299 292 292 295 301 300 296 296
232 239 251 250 253 254 256 265 277 289 289 294 292 286 289 293 296 294 294 294 293 292 294 293 292 294 290 286 285 283 282 288 295 292 294 289 287 286 293 291 297 295 289
247 245 242 247 250 251 255 266 275 278 289 288 281 282 288 293 297 297 296 298 296 294 294 291 290 288 287 290 287 286 285 283 281 279 282 289 293 289 281 289 294 293 298
250 251 241 243 248 248 255 261 272 282 281 281 287 285 288 293 296 303 304 302 299 298 295 293 290 288 290 289 286 285 280 275 278 284 283 286 284 292 290 292 285 292 288
251 251 249 252 251 245 253 272 288 286 285 286 285 289 296 296 304 307 307 303 302 301 299 296 292 289 286 288 293 292 288 288 287 283 289 285 286 288 293 284 285 285 292
252 254 250 249 247 241 257 290 285 286 293 290 290 295 297 302 306 306 310 305 301 299 297 295 293 288 293 291 291 295 297 287 282 283 283 280 285 289 285 283 283 280 278
253 250 244 259 255 259 288 273 283 290 286 284 287 287 290 295 306 310 311 307 300 295 291 291 291 293 296 302 298 293 288 285 282 278 276 282 280 282 273 271 270 271 270
249 244 230 220 231 263 262 278 287 288 283 283 290 295 294 297 304 314 315 309 301 296 292 295 297 297 301 300 300 301 297 289 287 286 283 285 286 285 281 278 268 268 271
253 237 175 157 200 231 260 274 279 280 285 293 292 293 291 292 303 312 317 304 301 305 301 299 301 298 303 309 301 296 292 295 299 293 287 286 284 282 280 267 267 262 263
204 152 161 173 199 232 257 264 282 283 285 285 283 288 285 286 300 311 314 312 307 310 309 308 303 308 307 305 303 298 295 300 301 296 289 285 284 279 274 260 250 245 252
163 159 182 205 230 232 246 266 271 282 279 287 296 297 290 301 303 315 315 322 316 315 308 307 306 300 306 309 310 307 305 309 305 292 286 285 287 289 287 279 261 256 249
139 181 194 222 229 238 239 254 266 263 283 302 307 306 307 307 309 311 318 315 315 316 310 303 308 312 313 313 304 306 314 307 302 298 295 292 290 290 292 285 272 267 266
174 190 202 212 241 229 253 268 274 276 297 303 302 296 299 304 307 311 300 308 312 313 303 302 315 317 311 303 306 305 303 302 300 297 295 296 297 297 294 276 283 278 271
181 191 212 210 221 264 260 255 275 258 280 289 292 297 305 306 301 309 316 315 312 308 325 324 322 314 310 308 304 302 303 304 302 299 299 299 297 295 295 281 277 274 262
181 200 117 49 327 301 288 289 292 302 306 305 308 309 304 307 313 314 320 314 314 331 330 321 310 309 307 310 310 309 307 305 304 304 299 296 298 300 299 290 279 271 273
62 35 23 10 322 312 313 307 310 311 309 309 315 318 317 310 320 321 316 318 334 336 313 309 303 306 307 308 307 307 306 306 305 300 300 300 301 297 303 289 287 278 272
88 121 178 281 301 320 311 313 307 305 312 311 315 318 322 326 323 320 326 338 324 325 297 303 304 305 305 304 304 304 303 304 303 303 301 299 300 302 305 295 290 281 269
48 28 45 354 313 317 300 286 293 300 298 304 314 315 322 323 321 324 331 315 304 307 311 307 302 300 299 299 298 298 297 298 300 300 298 299 303 305 303 299 290 277 241
212 220 159 294 304 306 294 299 301 293 303 306 305 304 313 311 326 327 317 306 304 301 305 303 303 300 298 297 297 297 297 297 298 297 296 296 300 299 301 306 292 271 226
27 351 345 279 296 311 297 292 292 306 299 299 295 298 312 330 318 308 307 307 304 303 304 301 300 298 298 297 297 297 296 294 294 293 293 294 295 298 301 301 292 243 219
7 298 314 301 295 312 290 289 294 281 290 295 301 304 317 313 297 298 300 299 298 297 296 296 296 295 296 295 295 295 296 294 293 291 290 290 291 290 292 297 295 190 161
3 339 328 322 314 307 309 297 294 290 291 292 293 300 307 301 298 297 298 299 299 299 300 297 296 295 295 293 292 288 287 287 289 290 289 289 290 286 284 289 291 186 180
358 340 332 316 318 315 300 297 295 289 287 293 295 295 296 298 297 296 295 297 298 299 300 298 295 295 296 294 294 292 287 286 284 282 287 287 285 284 270 274 273 184 173
13 346 331 295 291 293 298 292 290 292 298 299 300 299 298 298 298 299 298 299 299 301 301 302 298 296 297 298 294 292 288 290 295 291 286 277 274 271 256 256 252 167 168
347 311 285 292 294 289 283 288 288 297 300 301 300 300 299 301 301 301 300 301 302 303 305 299 298 299 301 299 297 298 303 304 302 300 295 282 273 262 229 245 181 161 170